Temperature
18 19 18 18 18 18 18 17 17 17 17 17 17 17 17 17 17 16 16 16 16 16 16 16 16 16 16 16 16 16 15 15 15 15 15 15 15 15 15 15 15 15 15
19 19 18 18 18 18 17 17 17 17 17 17 17 17 17 17 16 16 16 16 16 16 16 16 16 15 15 15 15 15 15 15 15 15 15 15 15 15 15 15 15 15 15
19 19 18 18 18 18 17 17 17 17 17 17 17 17 17 16 16 16 16 16 16 16 15 15 15 15 15 15 15 15 15 15 14 14 14 14 14 14 15 15 15 15 14
18 18 18 18 18 17 17 17 17 17 17 16 16 16 16 16 16 16 16 16 16 16 15 15 15 15 15 15 15 15 15 14 14 14 14 14 14 14 14 14 14 14 14
18 18 18 18 17 17 17 17 17 17 16 16 16 16 16 16 16 16 16 16 16 16 15 15 15 15 15 15 15 15 14 14 14 14 14 14 14 14 14 14 14 14 14
17 18 18 17 17 17 17 17 17 16 16 16 16 16 16 16 16 16 16 15 15 15 15 15 15 15 15 15 15 14 14 13 13 13 14 14 14 14 14 14 13 13 13
17 17 17 17 17 17 17 17 16 16 16 16 16 16 16 16 16 15 15 15 15 15 15 15 15 15 15 15 14 14 14 13 13 13 14 14 14 13 13 13 13 13 13
17 17 17 17 16 16 16 16 16 16 16 16 16 16 15 15 15 15 15 15 15 14 14 14 15 15 15 14 14 14 14 13 13 13 13 14 13 13 13 13 13 13 13
16 16 17 16 16 16 16 16 16 16 16 15 15 15 15 15 15 15 15 15 14 14 14 14 15 15 14 14 14 14 13 13 13 13 13 13 13 13 13 13 13 13 13
16 16 16 16 16 16 16 16 16 15 15 15 15 15 15 15 15 15 15 14 14 14 14 14 14 14 14 14 14 14 13 13 13 13 13 13 13 13 13 13 13 13 13
16 16 16 16 16 16 16 15 15 15 15 15 15 15 15 15 15 14 14 14 14 14 14 14 14 14 14 14 14 13 13 13 13 13 13 13 13 13 13 13 13 13 13
15 15 15 15 15 15 15 15 15 15 15 15 15 15 14 14 14 14 14 14 14 14 14 14 14 14 14 13 13 13 13 13 13 13 13 13 13 13 12 12 12 12 12
15 15 15 15 15 15 15 15 15 15 15 15 14 14 14 14 14 14 14 14 14 14 14 14 13 13 13 13 13 13 13 13 13 13 13 12 12 12 12 12 12 12 12
15 15 15 15 15 15 15 15 15 15 15 14 14 14 14 14 14 14 14 14 14 14 13 13 13 13 13 13 13 13 13 12 12 12 12 12 12 12 12 12 11 11 11
15 15 15 15 15 15 15 15 14 14 14 14 14 14 14 14 14 14 14 13 13 13 13 13 13 13 13 13 12 12 12 12 12 12 12 12 12 12 12 11 11 11 11
15 15 15 15 15 15 15 14 14 14 14 14 14 14 14 14 13 13 13 13 13 13 13 13 13 13 13 12 12 12 12 12 12 12 12 11 11 11 11 11 11 11 11
15 15 15 15 15 15 14 14 14 14 14 14 14 14 14 13 13 13 13 13 13 13 13 13 13 12 12 12 12 12 12 11 11 11 11 11 11 11 11 11 11 11 10
15 15 15 15 15 14 14 14 14 14 14 14 14 13 13 13 13 13 13 13 13 13 13 12 12 12 12 12 12 12 12 11 11 11 11 11 11 11 11 11 10 10 10
15 15 15 14 14 14 14 14 14 14 14 14 14 13 13 13 13 13 13 13 13 12 12 12 12 12 12 12 12 11 11 11 11 11 10 10 10 10 10 10 10 10 10
15 15 14 14 14 14 14 14 14 14 14 13 13 13 13 13 13 13 13 12 12 12 12 12 12 12 11 11 11 11 11 11 11 10 10 10 10 10 10 10 10 9 9
15 14 14 14 14 14 14 14 14 13 13 13 13 13 13 13 12 12 12 12 12 12 12 12 12 11 11 11 11 10 10 10 10 10 10 10 9 9 9 9 9 9 9
14 14 14 14 14 14 14 14 13 13 13 13 13 13 13 12 12 12 12 12 12 12 11 11 11 11 11 10 10 10 9 9 9 9 9 9 9 9 9 9 9 9 9
14 14 13 13 14 14 13 13 13 13 13 12 12 12 12 12 12 12 12 12 12 11 11 11 11 11 10 10 10 9 9 9 9 9 9 9 9 9 8 8 8 8 8
13 13 13 13 13 13 13 13 13 13 13 13 12 12 12 12 12 12 11 11 11 11 11 11 10 10 10 10 9 9 9 9 8 8 8 8 8 8 8 8 8 8 8
13 13 13 13 13 13 13 13 13 12 12 12 12 12 12 12 12 11 11 11 11 11 11 10 10 10 10 9 9 9 9 8 8 8 8 8 8 8 8 8 8 7 7
13 13 12 12 12 12 12 12 12 12 12 12 11 11 11 11 11 11 11 11 11 10 10 10 10 9 9 9 9 9 9 8 8 7 7 7 7 7 7 7 7 7 7
Wind_Speed
12 15 17 17 16 16 17 16 16 16 16 15 15 15 15 15 15 15 15 14 14 14 14 14 14 14 15 16 16 15 16 16 15 16 16 16 16 16 16 14 14 13 15
16 18 19 18 17 17 17 17 16 16 15 15 15 15 15 15 14 14 14 14 14 14 14 14 14 15 15 15 15 14 14 13 12 13 14 15 15 16 16 16 14 13 14
18 19 19 18 18 18 18 17 17 16 15 15 15 15 14 14 14 14 14 14 14 14 14 14 14 14 14 14 14 13 11 10 8 8 11 12 14 15 15 15 15 15 14
17 19 18 19 19 18 18 18 17 16 15 15 15 14 14 14 13 13 13 13 14 14 14 14 14 13 13 13 13 11 9 8 8 9 10 12 13 14 14 14 14 15 14
15 18 20 20 19 19 18 17 17 16 15 15 15 14 14 14 14 13 13 13 13 13 13 13 13 13 13 12 11 10 8 8 10 10 12 14 14 13 14 13 14 14 14
15 18 20 20 19 19 18 17 16 16 15 15 14 14 14 14 13 13 13 13 13 13 13 13 13 13 12 11 10 9 8 8 8 11 13 14 13 13 13 13 13 13 13
14 17 19 20 19 19 18 17 16 16 15 15 14 14 14 13 13 13 13 13 12 12 12 12 13 12 12 10 9 8 7 8 8 11 14 14 13 13 12 12 12 12 12
15 16 18 19 19 18 18 17 16 15 15 14 14 13 13 13 13 12 12 12 12 12 12 11 11 11 10 9 8 7 7 8 8 12 14 13 12 12 12 12 12 12 12
14 14 15 17 18 18 18 17 16 15 15 14 14 14 13 13 13 12 11 11 11 11 11 11 10 10 9 8 7 6 6 7 8 11 12 11 11 11 11 11 12 12 12
12 12 12 14 15 15 16 17 16 16 15 14 14 14 14 13 12 12 11 11 10 10 10 10 10 9 8 7 6 5 5 6 9 13 12 11 11 11 11 10 10 10 10
11 10 11 11 12 14 14 15 16 15 14 14 13 13 12 11 11 10 10 10 10 9 9 9 8 8 7 6 4 4 4 5 10 11 11 10 10 10 10 10 9 9 9
11 10 9 10 10 12 12 13 13 12 12 12 12 11 9 9 9 9 10 10 9 9 8 7 7 5 4 4 3 2 3 6 9 10 10 10 9 9 9 9 9 8 8
10 10 9 9 10 9 8 10 9 9 9 9 11 10 9 9 10 10 9 8 8 8 6 5 4 3 3 3 3 3 4 6 8 9 9 10 9 8 8 8 7 8 8
11 10 9 9 8 8 8 7 7 6 6 6 8 9 8 5 6 7 6 7 7 6 5 4 3 3 3 3 4 4 5 6 8 9 9 9 8 7 7 7 6 6 7
10 10 9 9 9 7 7 6 6 6 6 7 7 7 7 4 4 4 4 5 5 5 4 3 2 3 3 3 3 4 4 5 7 8 8 9 7 6 5 5 5 5 5
11 10 9 9 9 8 6 5 5 6 6 7 6 6 7 6 4 3 4 4 4 5 5 3 2 3 2 2 2 3 3 4 6 7 8 7 6 5 4 4 5 5 5
11 10 9 9 9 8 7 6 6 6 7 6 6 6 7 6 6 5 3 3 4 5 4 3 3 3 2 2 2 2 3 3 4 5 6 6 5 4 3 3 4 5 6
11 10 10 8 8 8 7 6 6 6 7 6 6 6 6 7 7 5 3 3 5 5 3 2 1 2 1 1 1 1 1 2 2 3 4 5 4 3 2 2 3 4 5
11 11 10 9 8 8 7 6 6 6 6 6 6 6 6 6 7 6 4 4 5 4 2 1 1 2 1 1 1 0 1 1 1 2 3 3 3 3 2 0 1 3 4
11 11 11 10 9 8 6 5 5 5 4 5 5 5 6 6 6 6 4 4 5 2 2 2 2 2 2 1 1 1 0 0 1 1 2 2 2 2 1 1 1 2 4
10 11 11 10 9 8 6 6 5 5 4 3 4 6 6 6 6 5 3 3 3 3 3 3 2 2 1 1 1 1 1 1 1 1 1 1 1 0 1 1 1 1 3
11 11 11 10 10 9 6 5 5 5 4 3 4 5 6 6 5 5 3 2 2 2 3 3 3 2 1 1 1 1 0 2 2 1 0 0 0 1 1 1 1 1 2
10 10 10 9 9 8 8 6 6 4 3 3 3 3 4 5 5 5 4 3 2 2 3 3 3 3 2 1 1 2 1 2 1 2 1 1 0 1 1 2 2 3 2
9 8 8 9 9 8 8 8 9 6 5 5 4 4 3 5 5 5 5 4 3 2 2 3 3 2 3 2 1 1 1 2 1 1 2 1 1 2 2 2 3 3 3
8 7 7 8 8 8 8 8 8 6 5 5 5 6 5 4 5 5 4 3 3 2 2 2 2 2 2 3 2 1 1 1 1 1 2 3 3 2 2 2 2 3 3
7 7 7 8 7 8 8 8 7 7 7 7 6 5 4 3 3 4 4 3 3 2 2 2 2 2 2 2 2 1 1 1 1 1 2 3 3 3 3 2 2 2 3
Wind_Direction
127 133 138 135 132 130 128 125 121 117 113 110 107 104 100 96 94 93 92 90 89 88 88 86 84 86 85 82 80 80 78 78 79 79 76 72 69 66 64 66 68 67 67
131 135 138 135 134 132 129 126 123 120 117 114 110 107 104 100 97 94 93 92 90 89 89 87 85 85 84 84 83 82 81 81 83 86 84 76 71 66 65 65 66 67 67
129 135 138 135 134 133 130 128 126 123 119 116 113 109 106 103 99 97 94 93 91 90 89 88 88 86 85 84 83 81 80 77 72 79 86 83 76 70 68 67 65 65 64
129 136 139 135 132 131 131 130 128 125 122 119 116 112 108 105 102 99 97 95 93 91 89 89 89 87 86 84 82 79 73 59 52 62 73 78 77 72 70 67 65 65 63
129 134 135 136 134 132 132 131 130 128 125 122 118 115 111 107 103 100 99 97 95 93 91 90 91 88 87 86 83 75 61 49 52 65 72 75 74 72 69 67 67 65 63
129 129 135 137 136 134 133 132 130 130 128 125 122 119 114 109 106 101 99 99 98 96 94 92 91 89 86 84 79 69 53 42 55 69 72 73 71 72 70 68 65 63 61
129 128 137 137 137 136 136 134 132 132 132 129 125 122 118 113 109 104 102 102 101 99 96 95 92 90 87 82 76 63 39 32 63 75 74 72 72 73 69 64 62 61 59
127 130 137 138 138 139 139 138 136 135 132 130 127 125 121 116 112 108 105 105 102 99 97 97 96 94 90 83 74 57 35 34 56 81 81 74 74 73 69 63 61 58 56
125 132 138 140 140 140 140 140 139 136 133 131 128 126 122 120 117 113 110 109 106 103 99 98 99 96 91 84 72 51 36 31 51 77 80 74 74 73 68 64 61 58 55
128 134 140 142 142 141 139 140 140 139 136 133 131 129 127 123 121 119 115 112 110 108 106 104 101 97 94 87 72 50 32 32 63 74 76 73 73 73 70 66 61 57 55
134 139 145 143 142 141 141 143 141 141 141 138 136 137 137 135 131 126 122 121 119 117 115 113 112 111 106 96 79 52 31 55 75 78 75 78 75 72 68 66 62 57 52
146 146 145 143 140 140 142 145 149 149 149 151 151 154 152 141 136 131 131 130 128 126 125 128 133 137 133 124 106 66 52 75 78 83 81 83 77 72 70 67 61 56 51
151 146 146 143 142 140 140 146 149 151 156 159 157 157 150 141 135 132 133 134 137 139 138 144 150 147 129 111 108 83 65 79 82 86 89 89 81 76 72 68 61 54 46
152 149 147 143 143 143 140 142 142 142 147 146 153 158 150 138 134 138 140 150 152 149 141 143 143 130 108 99 97 89 71 75 88 93 94 96 87 78 74 66 57 47 41
156 152 153 149 145 142 138 143 141 139 141 142 144 152 142 130 133 131 135 138 138 136 135 136 131 104 82 76 78 89 93 96 99 99 99 99 92 81 68 54 43 36 30
161 157 153 152 148 144 142 141 135 131 130 132 136 142 140 135 128 127 121 123 125 130 133 132 115 106 95 79 71 74 86 99 110 114 115 109 100 89 65 43 31 26 20
162 159 156 156 151 148 145 141 132 132 129 125 135 144 138 131 127 120 116 117 116 122 122 113 93 85 88 83 67 56 63 72 98 115 123 122 112 92 69 37 21 15 7
158 157 155 158 157 149 145 141 135 133 130 130 137 141 142 142 137 121 116 118 120 120 107 104 114 102 95 102 95 74 82 69 88 118 117 123 122 107 82 29 8 359 352
158 156 155 158 159 152 145 138 133 130 130 132 132 132 137 137 137 125 125 127 127 121 124 128 122 126 116 96 88 77 88 118 135 128 122 123 126 123 109 49 327 329 336
156 156 157 159 157 148 144 136 124 123 127 126 126 131 133 134 136 129 127 131 131 129 130 127 119 91 104 115 77 45 3 170 127 127 137 122 135 153 154 242 303 317 321
157 158 161 161 160 155 154 151 144 145 140 134 128 132 137 136 138 132 128 135 133 146 154 147 130 113 105 103 88 9 315 281 188 117 93 84 94 164 231 255 290 328 328
164 163 164 164 161 159 158 156 148 139 139 140 130 131 139 139 140 141 127 136 144 148 145 148 135 136 150 128 130 138 287 312 313 311 261 182 296 7 344 302 300 298 304
163 165 167 161 158 154 149 139 132 124 127 136 147 153 144 145 144 137 134 129 141 155 167 168 156 153 172 202 145 139 156 226 271 279 249 248 265 327 319 323 316 308 305
161 157 157 157 155 154 153 154 157 162 166 171 163 157 143 138 134 136 137 140 148 155 166 176 169 168 161 188 217 208 183 159 159 284 303 285 301 293 277 301 300 294 292
152 156 157 156 156 156 157 160 163 164 161 154 153 152 151 147 140 139 140 139 151 165 175 177 177 175 177 180 180 191 250 301 185 182 266 285 294 275 271 270 282 283 279
145 149 153 154 157 159 162 167 168 166 162 156 155 154 154 154 154 146 146 142 151 159 179 186 188 186 190 181 185 172 165 183 226 212 240 274 278 275 278 267 268 274 294
Height
1503 1506 1509 1511 1514 1516 1518 1520 1522 1524 1525 1527 1528 1529 1530 1531 1532 1532 1533 1534 1535 1535 1536 1537 1538 1538 1539 1539 1540 1541 1541 1542 1542 1542 1542 1542 1542 1542 1542 1543 1543 1543 1543
1501 1505 1509 1512 1514 1517 1519 1521 1523 1525 1527 1528 1529 1530 1531 1532 1533 1534 1534 1535 1536 1537 1538 1538 1539 1540 1540 1541 1542 1542 1543 1543 1543 1544 1544 1544 1544 1544 1544 1544 1544 1544 1544
1501 1505 1509 1512 1515 1517 1520 1522 1524 1526 1528 1529 1530 1531 1532 1533 1534 1535 1536 1536 1537 1538 1539 1540 1540 1541 1542 1542 1543 1544 1544 1545 1545 1545 1545 1545 1545 1545 1545 1545 1545 1545 1545
1502 1505 1509 1512 1515 1518 1520 1523 1525 1527 1528 1530 1531 1533 1534 1535 1535 1536 1537 1538 1538 1539 1540 1541 1542 1542 1543 1544 1544 1545 1546 1546 1547 1547 1547 1547 1547 1547 1547 1547 1547 1547 1546
1503 1506 1509 1512 1515 1518 1521 1523 1525 1527 1529 1531 1532 1533 1535 1536 1537 1537 1538 1539 1540 1540 1541 1542 1543 1543 1544 1545 1546 1546 1547 1548 1548 1548 1548 1548 1548 1548 1548 1548 1548 1548 1547
1503 1506 1509 1513 1516 1519 1521 1524 1526 1528 1530 1531 1533 1534 1536 1537 1538 1538 1539 1540 1541 1542 1542 1543 1544 1545 1545 1546 1547 1548 1548 1549 1549 1549 1549 1549 1549 1549 1549 1549 1549 1549 1548
1504 1506 1510 1513 1516 1519 1522 1524 1526 1528 1530 1532 1534 1535 1536 1538 1539 1539 1540 1541 1542 1543 1543 1544 1545 1546 1546 1547 1548 1549 1549 1550 1550 1550 1550 1550 1550 1550 1550 1550 1550 1549 1549
1504 1506 1510 1514 1516 1519 1522 1525 1527 1529 1531 1533 1534 1536 1537 1538 1539 1540 1541 1542 1543 1544 1544 1545 1546 1546 1547 1548 1549 1549 1550 1551 1551 1551 1551 1551 1551 1551 1550 1550 1550 1549 1549
1504 1507 1510 1514 1517 1519 1522 1525 1527 1529 1531 1533 1535 1536 1538 1539 1540 1541 1542 1543 1543 1544 1545 1546 1547 1547 1548 1549 1549 1550 1551 1551 1552 1551 1551 1551 1551 1551 1551 1550 1550 1550 1549
1505 1507 1510 1513 1516 1519 1522 1525 1527 1529 1531 1533 1535 1537 1538 1539 1540 1541 1542 1543 1544 1545 1546 1546 1547 1548 1549 1549 1550 1551 1551 1552 1552 1552 1552 1552 1552 1551 1551 1550 1550 1549 1549
1505 1508 1510 1513 1516 1518 1521 1524 1527 1529 1531 1533 1535 1537 1538 1539 1540 1541 1543 1544 1544 1545 1546 1547 1548 1548 1549 1550 1551 1551 1551 1552 1552 1552 1552 1552 1552 1551 1551 1550 1550 1549 1549
1504 1507 1510 1513 1515 1518 1521 1524 1526 1529 1531 1533 1535 1536 1538 1539 1540 1542 1543 1544 1545 1545 1546 1547 1548 1549 1550 1550 1551 1551 1552 1552 1552 1552 1552 1552 1552 1551 1550 1550 1549 1549 1548
1503 1507 1510 1512 1515 1517 1520 1523 1525 1528 1530 1532 1534 1536 1537 1539 1540 1541 1542 1544 1544 1545 1546 1547 1548 1549 1550 1550 1551 1551 1552 1552 1552 1552 1552 1551 1551 1551 1550 1550 1549 1549 1548
1503 1506 1509 1512 1514 1517 1519 1522 1525 1527 1529 1531 1533 1535 1537 1539 1540 1541 1542 1543 1544 1545 1546 1547 1548 1549 1549 1550 1550 1551 1551 1551 1551 1551 1551 1551 1550 1550 1549 1549 1548 1548 1547
1501 1504 1507 1510 1513 1516 1519 1521 1524 1526 1528 1531 1533 1534 1536 1538 1539 1540 1541 1543 1544 1545 1546 1547 1547 1548 1549 1549 1550 1550 1550 1550 1550 1550 1550 1550 1549 1549 1549 1548 1548 1547 1546
1499 1502 1506 1509 1512 1515 1517 1520 1523 1525 1527 1529 1531 1533 1535 1537 1538 1539 1540 1541 1543 1544 1545 1546 1547 1547 1548 1549 1549 1549 1549 1549 1549 1549 1549 1548 1548 1548 1548 1547 1547 1546 1545
1497 1500 1504 1507 1510 1513 1516 1518 1521 1524 1526 1528 1530 1532 1534 1536 1537 1538 1539 1540 1542 1543 1544 1545 1545 1546 1547 1547 1548 1548 1548 1548 1548 1548 1547 1547 1547 1547 1547 1546 1545 1545 1544
1494 1498 1501 1504 1508 1511 1514 1517 1519 1522 1524 1527 1529 1531 1532 1534 1535 1536 1538 1539 1540 1541 1542 1543 1544 1544 1545 1546 1546 1546 1546 1546 1546 1546 1546 1546 1546 1546 1545 1545 1544 1543 1542
1492 1495 1498 1502 1505 1508 1511 1515 1517 1520 1523 1525 1527 1529 1530 1532 1534 1535 1536 1537 1538 1539 1540 1541 1542 1543 1543 1544 1544 1544 1544 1545 1545 1544 1544 1544 1544 1544 1543 1543 1542 1541 1540
1489 1492 1496 1499 1502 1505 1509 1512 1515 1518 1520 1522 1525 1526 1528 1530 1532 1533 1534 1535 1536 1538 1538 1539 1540 1541 1541 1542 1542 1543 1543 1543 1543 1543 1543 1543 1542 1542 1541 1541 1540 1539 1538
1486 1489 1492 1496 1499 1502 1505 1508 1511 1514 1517 1520 1522 1524 1526 1527 1529 1531 1532 1533 1534 1535 1536 1537 1538 1539 1539 1540 1540 1540 1541 1541 1541 1541 1541 1541 1540 1539 1539 1538 1538 1537 1535
1482 1486 1489 1492 1495 1499 1502 1505 1509 1512 1514 1517 1519 1522 1523 1525 1527 1528 1529 1531 1532 1533 1534 1535 1536 1536 1537 1538 1538 1538 1538 1539 1538 1538 1538 1538 1537 1537 1536 1536 1535 1534 1532
1479 1482 1486 1489 1492 1496 1499 1503 1506 1509 1511 1514 1516 1518 1520 1522 1524 1525 1527 1528 1529 1530 1531 1532 1533 1534 1534 1535 1536 1537 1537 1536 1536 1535 1535 1534 1534 1534 1533 1532 1531 1530 1529
1475 1479 1482 1485 1489 1492 1496 1499 1502 1504 1507 1510 1512 1515 1517 1519 1521 1522 1524 1525 1526 1527 1528 1529 1530 1531 1532 1532 1533 1534 1535 1534 1534 1532 1531 1531 1531 1530 1529 1528 1528 1527 1525
1472 1475 1479 1483 1486 1489 1492 1496 1499 1502 1504 1507 1510 1512 1514 1516 1518 1519 1520 1522 1523 1524 1525 1526 1527 1528 1528 1529 1530 1530 1531 1531 1531 1530 1528 1527 1526 1526 1525 1524 1523 1522 1521
1469 1472 1476 1479 1482 1486 1489 1492 1495 1498 1501 1503 1506 1508 1510 1512 1514 1516 1517 1518 1519 1521 1522 1523 1524 1525 1525 1526 1526 1527 1527 1527 1527 1527 1525 1523 1522 1521 1521 1520 1519 1518 1517